FW5241 Weather Reports


Display with metric or nautical units.
time (UTC)temp
F
wind
direction
speed
MPH
gust
MPH
rain 1hr
in
rain 24hr
in
rain mn
in
humidity
%
barometer
mb
20260504081502 43 267 0.0 0.0 0.00 0.00 0.00 70 1010.4
20260504050113 42 317 0.0 0.0 0.00 0.00 0.00 72 1010.7
20260504044544 42 315 0.0 0.0 0.00 0.00 0.00 70 1010.7
20260504043042 43 285 0.0 0.0 0.00 0.00 0.00 69 1010.6
20260504041540 43 336 0.0 0.0 0.00 0.00 0.00 69 1010.5
20260504040041 44 306 0.0 0.0 0.00 0.00 0.00 68 1010.3
20260504034546 45 322 0.0 0.0 0.00 0.00 0.00 66 1010.2
20260504033034 45 183 0.0 0.0 0.00 0.00 0.00 64 1010.3
20260504031540 45 284 0.0 0.0 0.00 0.00 0.00 65 1010.3
20260504030039 45 278 0.0 0.0 0.00 0.00 0.00 66 1010.3
20260504024533 45 36 0.0 0.0 0.00 0.00 0.00 66 1010.4
20260504023029 46 223 0.0 0.0 0.00 0.00 0.00 64 1010.7
20260504021528 46 242 0.0 0.0 0.00 0.00 0.00 63 1010.4
20260504020030 46 31 0.0 0.0 0.00 0.00 0.00 64 1010.4
20260504014526 46 275 0.0 0.0 0.00 0.00 0.00 67 1010.3
20260504013026 46 315 0.0 0.0 0.00 0.00 0.00 66 1010.2
20260504011522 46 167 0.0 0.0 0.00 0.00 0.00 65 1010.1
20260504010017 48 133 0.0 0.0 0.00 0.00 0.00 63 1009.8
20260504004513 50 108 0.0 0.0 0.00 0.00 0.00 59 1009.6
20260504003009 52 200 0.0 0.0 0.00 0.00 0.00 55 1009.6
20260504001506 53 141 0.0 0.0 0.00 0.00 0.00 47 1009.6
20260504000111 0 0.0 0.0 0.00 0.00 0.00 1009.3
20260503233015 55 82 0.0 0.0 0.00 0.00 0.00 42 1009.2
20260503231517 56 153 0.0 0.0 0.00 0.00 0.00 46 1009.2
20260503230013 56 108 0.0 0.0 0.00 0.00 0.00 44 1009.2
20260503224510 56 112 0.0 0.0 0.00 0.00 0.00 42 1009.2
20260503223017 57 232 0.0 0.0 0.00 0.00 0.00 41 1009.5
20260503221507 57 259 0.0 0.0 0.00 0.00 0.00 41 1009.2
20260503220009 57 168 0.0 0.0 0.00 0.00 0.00 43 1009.3
20260503213046 56 277 0.0 0.0 0.00 0.00 0.00 40 1009.3
20260503211526 56 209 0.0 0.0 0.00 0.00 0.00 41 1009.2
20260503210025 56 323 0.0 0.0 0.00 0.00 0.00 39 1009.2
20260503204534 56 190 0.0 0.0 0.00 0.00 0.00 40 1009.2
20260503203025 56 169 0.0 0.0 0.00 0.00 0.00 38 1009.3
20260503201526 56 5 0.0 0.0 0.00 0.00 0.00 39 1009.4
20260503200022 57 211 0.0 0.0 0.00 0.00 0.00 39 1009.4
20260503194525 56 283 0.0 0.0 0.00 0.00 0.00 43 1009.6
20260503193020 56 333 0.0 0.0 0.00 0.00 0.00 38 1009.9
20260503191518 56 279 0.0 0.0 0.00 0.00 0.00 35 1010.0
20260503190016 56 275 0.0 0.0 0.00 0.00 0.00 36 1010.3
20260503184515 56 277 0.0 0.0 0.00 0.00 0.00 39 1010.4
20260503183012 55 281 0.0 0.0 0.00 0.00 0.00 35 1010.5
20260503181510 54 278 0.0 0.0 0.00 0.00 0.00 39 1010.6
20260503180018 53 229 0.0 0.0 0.00 0.00 0.00 42 1010.9
20260503174517 54 62 0.0 0.0 0.00 0.00 0.00 39 1011.0
20260503173001 52 22 0.0 0.0 0.00 0.00 0.00 41 1011.2
20260503171600 51 288 0.0 0.0 0.00 0.00 0.00 46 1011.5